Location: Grandview
(34.8900°N, 117.1058°W)
Time: 17:48:59
(UTC-08:00)

Vanguard 2 Rocket - Visible Passes

Search period start: 19 February 2018 00:00
Search period end: 01 March 2018 00:00
Orbit: 555 x 3327 km, 32.9° (Epoch: 19 February)

Date Brightness Start Highest point End Pass type
(mag) Time Alt. Az. Time Alt. Az. Time Alt. Az.
19 Feb 9.4 02:30:31 79° SSE 02:30:31 79° SSE 02:49:07 10° ESE visible
19 Feb 9.6 04:36:19 31° W 04:47:39 56° SSW 05:04:02 10° SE visible
19 Feb 9.6 20:44:40 10° SSW 20:47:03 20° SSW 20:47:03 20° SSW visible
20 Feb 9.8 01:34:21 52° ESE 01:34:21 52° ESE 01:47:35 10° E visible
20 Feb 9.5 03:40:10 53° WSW 03:45:51 66° SSW 04:04:04 10° SE visible
20 Feb 10.1 05:45:59 10° W 06:02:26 34° SW 06:16:02 10° SSE visible
20 Feb 9.3 19:47:12 10° S 19:51:18 22° SSE 19:51:18 22° SSE visible
20 Feb 10.1 21:56:55 10° SW 21:57:08 11° SW 21:57:08 11° SW visible
21 Feb 10.4 00:38:15 29° E 00:38:15 29° E 00:45:31 10° E visible
21 Feb 9.4 02:44:04 74° S 02:44:04 74° S 03:03:24 10° ESE visible
21 Feb 9.8 04:49:53 25° W 05:01:23 45° SW 05:17:19 10° SSE visible
21 Feb 9.5 18:51:34 10° SSE 18:55:09 13° SE 18:55:34 13° SE visible
21 Feb 9.3 20:58:15 10° SW 21:01:24 26° SSW 21:01:24 26° SSW visible
21 Feb 11.0 23:42:13 12° E 23:42:13 12° E 23:43:00 10° E visible
22 Feb 9.7 01:48:02 55° ESE 01:48:02 55° ESE 02:02:02 10° ESE visible
22 Feb 9.6 03:53:52 45° WSW 03:59:50 55° SSW 04:17:43 10° SE visible
22 Feb 10.3 06:01:56 10° W 06:15:49 24° SW 06:27:51 10° S visible
22 Feb 8.8 20:00:11 10° SSW 20:05:40 32° SSE 20:05:40 32° SSE visible
22 Feb 10.1 22:11:11 10° WSW 22:11:30 12° WSW 22:11:30 12° WSW visible
23 Feb 10.3 00:52:04 31° ESE 00:52:04 31° ESE 01:00:03 10° E visible
23 Feb 9.4 02:57:54 65° SSW 02:57:56 65° SSW 03:17:22 10° SE visible
23 Feb 10.1 05:03:43 20° W 05:14:58 34° SW 05:29:56 10° SSE visible
23 Feb 9.0 19:02:55 10° S 19:08:32 21° SE 19:09:55 21° ESE visible
23 Feb 9.2 21:12:16 10° SW 21:15:45 30° SW 21:15:45 30° SW visible
23 Feb 10.9 23:56:10 13° E 23:56:10 13° E 23:57:34 10° E visible
24 Feb 9.7 02:02:00 54° SE 02:02:00 54° SE 02:16:14 10° ESE visible
24 Feb 9.7 04:07:50 38° WSW 04:13:39 44° SW 04:30:51 10° SSE visible
24 Feb 9.3 18:09:37 10° SE 18:09:42 10° SE 18:09:46 10° SE visible
24 Feb 8.4 20:13:49 10° SW 20:19:59 45° S 20:19:59 45° S visible
24 Feb 10.2 22:25:38 10° WSW 22:25:49 11° WSW 22:25:49 11° WSW visible
25 Feb 10.3 01:06:10 32° ESE 01:06:10 32° ESE 01:14:26 10° ESE visible
25 Feb 9.5 03:12:00 54° SSW 03:12:00 54° SSW 03:30:54 10° SE visible
25 Feb 10.3 05:17:50 15° W 05:28:29 24° SW 05:41:30 10° S visible
25 Feb 8.5 19:15:53 10° SSW 19:22:05 32° SE 19:24:11 29° ESE visible
25 Feb 9.2 21:26:35 10° WSW 21:30:01 31° WSW 21:30:01 31° WSW visible
26 Feb 10.9 00:10:23 14° ESE 00:10:23 14° ESE 00:12:05 10° ESE visible
26 Feb 9.8 02:16:13 50° SSE 02:16:13 50° SSE 02:30:06 10° SE visible
26 Feb 10.0 04:22:04 29° WSW 04:27:22 33° SW 04:43:16 10° SSE visible
26 Feb 8.9 18:18:50 10° S 18:23:10 18° SE 18:28:21 11° E visible
26 Feb 8.2 20:27:53 10° SW 20:34:11 56° S 20:34:11 56° S visible
27 Feb 10.3 01:20:30 31° SE 01:20:30 31° SE 01:28:35 10° ESE visible
27 Feb 9.7 03:26:20 42° SSW 03:26:20 42° SSW 03:43:51 10° SSE visible
27 Feb 10.5 05:32:59 10° WSW 05:42:04 15° SW 05:50:55 10° SSW visible
27 Feb 8.1 19:29:34 10° SW 19:35:57 44° SSE 19:38:18 38° ESE visible
27 Feb 9.3 21:41:05 10° WSW 21:44:08 28° WSW 21:44:08 28° WSW visible
28 Feb 10.9 00:24:47 14° ESE 00:24:47 14° ESE 00:26:27 10° ESE visible
28 Feb 9.9 02:30:39 42° SSE 02:30:39 42° SSE 02:43:30 10° SE visible
28 Feb 10.2 04:36:29 21° WSW 04:41:04 23° SW 04:54:33 10° S visible
28 Feb 8.3 18:31:44 10° SSW 18:36:50 28° SE 18:42:23 16° E visible
28 Feb 8.1 20:42:13 10° WSW 20:48:13 61° SW 20:48:13 61° SW visible
